Hlavní strana
METAR-TAF:

METAR-TAF

Letiště :

Fairfield County Airport

Lancaster, Ohio, Spojené státy americké

zeměpisná šířka: 39-45-26N, zeměpisná délka: 082-39-48W, výška: 264 m

Aktuální stav počasí

Zpráva byla vytvořena před 23 minutami, v 02:53 UTC
Západoseverozápadní vítr 9 kt
Teplota 0°C
Vlhkost vzduchu 64%
Tlak 1029 hPa
Viditelnost: 16.1 km
Skoro jasno ve výšce 3600 ft

METAR: KLHQ 140253Z AUTO 30009KT 10SM FEW036 00/M06 A3040 RMK AO2 SLP302 T00001061 52021

Čas: 22:16 (03:16 UTC)


TAF: chybějící

Stav a předpovědi počasí z více než 4 000 letišť (zprávy METAR a TAF).

Červené a žluté tečky na mapě představují dostupné meteorologické stanice.

Když kurzor umístíte na tečku, zobrazí se název stanice.

Pak kliknutím zobrazíte stav a předpověď počasí.

Chcete-li změnit mapu, kliknutím na zelené tlačítko se znaménkem +mapu přiblížíte, kliknutím na zelené tlačítko se znaménkem – mapu oddálíte a kliknutím na zelené šipky přejdete na sousední mapy.


METAR-TAF: